Time,TemperatureF,DewpointF,PressureIn,WindDirection,WindDirectionDegrees,WindSpeedMPH,WindSpeedGustMPH,Humidity,HourlyPrecipIn,Conditions,Clouds,dailyrainin,SoftwareType,DateUTC
2013-09-09 00:06:00,48.2,44.0,29.67,SW,225,0.0,3.0,86,0.00,,,0.00,weatherlink.com 1.10,2013-09-08 23:06:00,
2013-09-09 00:21:00,48.1,44.0,29.67,NW,314,1.0,3.0,87,0.00,,,0.00,weatherlink.com 1.10,2013-09-08 23:21:00,
2013-09-09 00:37:00,47.9,44.0,29.67,West,273,1.0,5.0,87,0.00,,,0.00,weatherlink.com 1.10,2013-09-08 23:37:00,
2013-09-09 00:52:00,48.0,44.0,29.67,WSW,256,0.0,3.0,87,0.00,,,0.00,weatherlink.com 1.10,2013-09-08 23:52:00,
2013-09-09 01:07:00,48.1,45.0,29.67,SW,229,0.0,3.0,88,0.00,,,0.00,weatherlink.com 1.10,2013-09-09 00:07:00,
2013-09-09 01:22:00,48.4,45.0,29.67,NNW,340,1.0,2.0,87,0.00,,,0.00,weatherlink.com 1.10,2013-09-09 00:22:00,
2013-09-09 01:37:00,48.4,45.0,29.66,WSW,238,0.0,2.0,87,0.00,,,0.00,weatherlink.com 1.10,2013-09-09 00:37:00,
2013-09-09 01:52:00,48.3,45.0,29.66,WNW,302,0.0,3.0,88,0.00,,,0.00,weatherlink.com 1.10,2013-09-09 00:52:00,
2013-09-09 02:07:00,48.4,45.0,29.67,WNW,302,0.0,1.0,88,0.00,,,0.00,weatherlink.com 1.10,2013-09-09 01:07:00,
2013-09-09 02:22:00,48.2,45.0,29.67,NNW,333,1.0,1.0,88,0.00,,,0.00,weatherlink.com 1.10,2013-09-09 01:22:00,
2013-09-09 02:37:00,47.9,45.0,29.67,North,349,0.0,1.0,89,0.00,,,0.00,weatherlink.com 1.10,2013-09-09 01:37:00,
2013-09-09 02:52:00,47.5,45.0,29.67,NNW,347,0.0,1.0,90,0.00,,,0.00,weatherlink.com 1.10,2013-09-09 01:52:00,
2013-09-09 03:07:00,46.9,45.0,29.67,NW,316,1.0,2.0,92,0.00,,,0.00,weatherlink.com 1.10,2013-09-09 02:07:00,
2013-09-09 03:23:00,46.4,44.0,29.68,NW,321,1.0,2.0,92,0.00,,,0.00,weatherlink.com 1.10,2013-09-09 02:23:00,
2013-09-09 03:37:00,46.1,44.0,29.68,WNW,302,1.0,3.0,93,0.00,,,0.00,weatherlink.com 1.10,2013-09-09 02:37:00,
2013-09-09 03:52:00,45.7,44.0,29.67,NW,318,1.0,2.0,93,0.00,,,0.00,weatherlink.com 1.10,2013-09-09 02:52:00,
2013-09-09 04:07:00,45.3,43.0,29.67,NNW,346,0.0,1.0,92,0.00,,,0.00,weatherlink.com 1.10,2013-09-09 03:07:00,
2013-09-09 04:22:00,45.1,43.0,29.67,West,279,1.0,2.0,92,0.00,,,0.00,weatherlink.com 1.10,2013-09-09 03:22:00,
2013-09-09 04:37:00,44.9,43.0,29.68,NNW,342,0.0,1.0,92,0.00,,,0.00,weatherlink.com 1.10,2013-09-09 03:37:00,
2013-09-09 04:52:00,44.9,43.0,29.68,NW,325,0.0,1.0,92,0.00,,,0.00,weatherlink.com 1.10,2013-09-09 03:52:00,
2013-09-09 05:07:00,44.9,43.0,29.68,NW,325,0.0,2.0,92,0.00,,,0.00,weatherlink.com 1.10,2013-09-09 04:07:00,
2013-09-09 05:22:00,44.9,43.0,29.69,WNW,302,2.0,2.0,92,0.00,,,0.00,weatherlink.com 1.10,2013-09-09 04:22:00,
2013-09-09 05:37:00,45.2,43.0,29.69,WNW,300,0.0,2.0,92,0.00,,,0.00,weatherlink.com 1.10,2013-09-09 04:37:00,
2013-09-09 05:52:00,45.1,43.0,29.69,NW,322,0.0,2.0,92,0.00,,,0.00,weatherlink.com 1.10,2013-09-09 04:52:00,
2013-09-09 06:07:00,44.8,43.0,29.69,NW,309,2.0,2.0,92,0.00,,,0.00,weatherlink.com 1.10,2013-09-09 05:07:00,
2013-09-09 06:23:00,44.5,43.0,29.70,NW,321,0.0,2.0,93,0.00,,,0.00,weatherlink.com 1.10,2013-09-09 05:23:00,
2013-09-09 06:37:00,44.4,43.0,29.71,NW,316,0.0,2.0,93,0.00,,,0.00,weatherlink.com 1.10,2013-09-09 05:37:00,
2013-09-09 06:52:00,43.3,43.0,29.72,NNW,328,1.0,2.0,97,0.00,,,0.00,weatherlink.com 1.10,2013-09-09 05:52:00,
2013-09-09 07:07:00,-999.0,-99.9,29.71,North,-999,-999.0,-999.0,-999,0.00,,,0.00,weatherlink.com 1.10,2013-09-09 06:07:00,
2013-09-09 07:22:00,-999.0,-99.9,29.73,North,-999,-999.0,-999.0,-999,0.00,,,0.00,weatherlink.com 1.10,2013-09-09 06:22:00,
2013-09-09 07:37:00,-999.0,-99.9,29.73,North,-999,-999.0,-999.0,-999,0.00,,,0.00,weatherlink.com 1.10,2013-09-09 06:37:00,
2013-09-09 08:08:00,-999.0,-99.9,29.73,North,-999,-999.0,-999.0,-999,0.00,,,0.00,weatherlink.com 1.10,2013-09-09 07:08:00,
2013-09-09 08:23:00,49.3,46.0,29.74,NNW,342,2.0,4.0,89,0.00,,,0.00,weatherlink.com 1.10,2013-09-09 07:23:00,
2013-09-09 08:38:00,50.2,47.0,29.75,North,8,1.0,6.0,88,0.00,,,0.00,weatherlink.com 1.10,2013-09-09 07:38:00,
2013-09-09 08:53:00,50.9,47.0,29.75,North,354,2.0,7.0,87,0.00,,,0.00,weatherlink.com 1.10,2013-09-09 07:53:00,
2013-09-09 09:08:00,50.8,47.0,29.75,NW,325,2.0,8.0,88,0.00,,,0.00,weatherlink.com 1.10,2013-09-09 08:08:00,
2013-09-09 09:23:00,51.2,48.0,29.76,NW,325,2.0,7.0,87,0.00,,,0.00,weatherlink.com 1.10,2013-09-09 08:23:00,
2013-09-09 09:38:00,53.1,48.0,29.76,NW,323,3.0,6.0,83,0.00,,,0.00,weatherlink.com 1.10,2013-09-09 08:38:00,
2013-09-09 09:54:00,54.0,48.0,29.76,NNE,32,5.0,8.0,79,0.00,,,0.00,weatherlink.com 1.10,2013-09-09 08:54:00,
2013-09-09 10:08:00,54.3,48.0,29.76,NNE,25,4.0,9.0,79,0.00,,,0.00,weatherlink.com 1.10,2013-09-09 09:08:00,
2013-09-09 10:23:00,54.3,48.0,29.77,North,7,7.0,12.0,78,0.00,,,0.00,weatherlink.com 1.10,2013-09-09 09:23:00,
2013-09-09 10:38:00,54.1,47.0,29.77,NNE,22,3.0,12.0,78,0.00,,,0.00,weatherlink.com 1.10,2013-09-09 09:38:00,
2013-09-09 10:53:00,54.2,48.0,29.77,NNW,347,5.0,8.0,80,0.00,,,0.00,weatherlink.com 1.10,2013-09-09 09:53:00,
2013-09-09 11:08:00,54.4,49.0,29.78,North,354,2.0,9.0,82,0.00,,,0.00,weatherlink.com 1.10,2013-09-09 10:08:00,
2013-09-09 11:23:00,54.8,49.0,29.78,North,359,7.0,11.0,82,0.00,,,0.00,weatherlink.com 1.10,2013-09-09 10:23:00,
2013-09-09 11:38:00,55.6,50.0,29.78,North,356,4.0,9.0,81,0.00,,,0.00,weatherlink.com 1.10,2013-09-09 10:38:00,
2013-09-09 11:53:00,56.6,49.0,29.78,NE,55,7.0,11.0,76,0.00,,,0.00,weatherlink.com 1.10,2013-09-09 10:53:00,
2013-09-09 12:08:00,57.1,49.0,29.78,North,11,7.0,11.0,74,0.00,,,0.00,weatherlink.com 1.10,2013-09-09 11:08:00,
2013-09-09 12:23:00,57.2,50.0,29.78,ENE,77,5.0,10.0,76,0.00,,,0.00,weatherlink.com 1.10,2013-09-09 11:23:00,
2013-09-09 12:38:00,58.0,49.0,29.78,North,349,5.0,9.0,72,0.00,,,0.00,weatherlink.com 1.10,2013-09-09 11:38:00,
2013-09-09 12:54:00,58.3,49.0,29.78,NE,49,6.0,11.0,71,0.00,,,0.00,weatherlink.com 1.10,2013-09-09 11:54:00,
2013-09-09 13:09:00,59.3,49.0,29.78,ENE,75,2.0,8.0,69,0.00,,,0.00,weatherlink.com 1.10,2013-09-09 12:09:00,
2013-09-09 13:24:00,59.7,49.0,29.78,NE,46,12.0,12.0,68,0.00,,,0.00,weatherlink.com 1.10,2013-09-09 12:24:00,
2013-09-09 13:39:00,59.3,49.0,29.78,NNE,13,6.0,13.0,69,0.00,,,0.00,weatherlink.com 1.10,2013-09-09 12:39:00,
2013-09-09 13:54:00,59.9,49.0,29.79,NNE,33,10.0,15.0,68,0.00,,,0.00,weatherlink.com 1.10,2013-09-09 12:54:00,
2013-09-09 14:09:00,59.7,49.0,29.79,North,357,8.0,12.0,69,0.00,,,0.00,weatherlink.com 1.10,2013-09-09 13:09:00,
2013-09-09 14:24:00,60.7,50.0,29.79,NNW,341,4.0,12.0,68,0.00,,,0.00,weatherlink.com 1.10,2013-09-09 13:24:00,
2013-09-09 14:39:00,61.2,51.0,29.79,NE,53,6.0,14.0,69,0.00,,,0.00,weatherlink.com 1.10,2013-09-09 13:39:00,
2013-09-09 14:54:00,60.6,50.0,29.80,NNE,16,8.0,15.0,69,0.00,,,0.00,weatherlink.com 1.10,2013-09-09 13:54:00,
2013-09-09 15:09:00,60.7,49.0,29.80,NNW,330,6.0,14.0,66,0.00,,,0.00,weatherlink.com 1.10,2013-09-09 14:09:00,
2013-09-09 15:24:00,61.8,48.0,29.80,NE,49,7.0,15.0,62,0.00,,,0.00,weatherlink.com 1.10,2013-09-09 14:24:00,
2013-09-09 15:39:00,60.8,48.0,29.80,North,8,5.0,15.0,62,0.00,,,0.00,weatherlink.com 1.10,2013-09-09 14:39:00,
2013-09-09 15:54:00,60.4,48.0,29.81,NNE,16,2.0,9.0,65,0.00,,,0.00,weatherlink.com 1.10,2013-09-09 14:54:00,
2013-09-09 16:09:00,60.7,49.0,29.81,NE,41,6.0,14.0,65,0.00,,,0.00,weatherlink.com 1.10,2013-09-09 15:09:00,
2013-09-09 16:25:00,60.7,49.0,29.81,North,356,9.0,13.0,66,0.00,,,0.00,weatherlink.com 1.10,2013-09-09 15:25:00,
2013-09-09 16:39:00,60.4,49.0,29.82,NNE,16,2.0,21.0,67,0.00,,,0.00,weatherlink.com 1.10,2013-09-09 15:39:00,
2013-09-09 16:54:00,59.9,50.0,29.82,North,359,13.0,17.0,69,0.00,,,0.00,weatherlink.com 1.10,2013-09-09 15:54:00,
2013-09-09 17:09:00,59.0,50.0,29.82,NNE,22,5.0,13.0,73,0.00,,,0.00,weatherlink.com 1.10,2013-09-09 16:09:00,
2013-09-09 17:24:00,59.2,51.0,29.82,NNE,27,7.0,13.0,73,0.00,,,0.00,weatherlink.com 1.10,2013-09-09 16:24:00,
2013-09-09 17:39:00,59.3,51.0,29.82,NE,37,4.0,11.0,73,0.00,,,0.00,weatherlink.com 1.10,2013-09-09 16:39:00,
2013-09-09 17:54:00,59.4,51.0,29.83,ENE,65,2.0,12.0,74,0.00,,,0.00,weatherlink.com 1.10,2013-09-09 16:54:00,
2013-09-09 18:09:00,59.2,51.0,29.84,North,8,3.0,12.0,73,0.00,,,0.00,weatherlink.com 1.10,2013-09-09 17:09:00,
2013-09-09 18:24:00,59.1,50.0,29.84,NNE,30,8.0,12.0,73,0.00,,,0.00,weatherlink.com 1.10,2013-09-09 17:24:00,
2013-09-09 18:39:00,58.9,51.0,29.85,North,349,6.0,13.0,75,0.00,,,0.00,weatherlink.com 1.10,2013-09-09 17:39:00,
2013-09-09 18:54:00,58.6,51.0,29.85,North,11,5.0,15.0,76,0.00,,,0.00,weatherlink.com 1.10,2013-09-09 17:54:00,
2013-09-09 19:09:00,58.2,51.0,29.86,North,359,5.0,13.0,76,0.00,,,0.00,weatherlink.com 1.10,2013-09-09 18:09:00,
2013-09-09 19:24:00,57.8,51.0,29.86,NNE,18,3.0,13.0,77,0.00,,,0.00,weatherlink.com 1.10,2013-09-09 18:24:00,
2013-09-09 19:39:00,57.6,51.0,29.86,NNW,341,4.0,8.0,78,0.00,,,0.00,weatherlink.com 1.10,2013-09-09 18:39:00,
2013-09-09 19:54:00,57.2,51.0,29.87,North,356,9.0,12.0,80,0.00,,,0.00,weatherlink.com 1.10,2013-09-09 18:54:00,
2013-09-09 20:09:00,57.0,51.0,29.88,North,4,7.0,11.0,81,0.00,,,0.00,weatherlink.com 1.10,2013-09-09 19:09:00,
2013-09-09 20:24:00,56.8,51.0,29.89,NNW,335,4.0,12.0,82,0.00,,,0.00,weatherlink.com 1.10,2013-09-09 19:24:00,
2013-09-09 20:39:00,56.6,52.0,29.90,North,11,4.0,9.0,83,0.00,,,0.00,weatherlink.com 1.10,2013-09-09 19:39:00,
2013-09-09 20:54:00,56.4,51.0,29.90,North,357,4.0,10.0,82,0.00,,,0.00,weatherlink.com 1.10,2013-09-09 19:54:00,
2013-09-09 21:09:00,56.1,51.0,29.90,North,9,6.0,9.0,83,0.00,,,0.00,weatherlink.com 1.10,2013-09-09 20:09:00,
2013-09-09 21:24:00,55.7,51.0,29.90,North,6,4.0,10.0,84,0.00,,,0.00,weatherlink.com 1.10,2013-09-09 20:24:00,
2013-09-09 21:40:00,55.2,51.0,29.91,North,9,6.0,12.0,86,0.00,,,0.00,weatherlink.com 1.10,2013-09-09 20:40:00,
2013-09-09 21:55:00,55.1,51.0,29.92,NW,316,4.0,11.0,86,0.00,,,0.00,weatherlink.com 1.10,2013-09-09 20:55:00,
2013-09-09 22:10:00,54.8,51.0,29.92,NNE,16,5.0,10.0,87,0.00,,,0.00,weatherlink.com 1.10,2013-09-09 21:10:00,
2013-09-09 22:25:00,54.5,51.0,29.93,North,4,6.0,7.0,88,0.00,,,0.00,weatherlink.com 1.10,2013-09-09 21:25:00,
2013-09-09 22:40:00,54.3,51.0,29.92,NNE,30,9.0,13.0,88,0.00,,,0.00,weatherlink.com 1.10,2013-09-09 21:40:00,
2013-09-09 22:55:00,54.1,51.0,29.93,North,350,4.0,8.0,89,0.00,,,0.00,weatherlink.com 1.10,2013-09-09 21:55:00,
2013-09-09 23:10:00,54.1,51.0,29.94,North,357,3.0,9.0,89,0.00,,,0.00,weatherlink.com 1.10,2013-09-09 22:10:00,
2013-09-09 23:25:00,54.0,51.0,29.94,NNE,13,5.0,6.0,89,0.00,,,0.00,weatherlink.com 1.10,2013-09-09 22:25:00,
2013-09-09 23:40:00,53.8,51.0,29.93,North,352,2.0,9.0,90,0.00,,,0.00,weatherlink.com 1.10,2013-09-09 22:40:00,